Time,TemperatureF,DewpointF,PressureIn,WindDirection,WindDirectionDegrees,WindSpeedMPH,WindSpeedGustMPH,Humidity,HourlyPrecipIn,Conditions,Clouds,dailyrainin,SoftwareType,DateUTC
2013-06-18 00:00:00,64.0,-99.9,-100.00,SW,225,12.0,15.0,-999,-99.99,,,-99.99,,2013-06-18 06:00:00,
2013-06-18 00:33:00,64.0,-99.9,-100.00,SW,225,12.0,15.0,-999,-99.99,,,-99.99,,2013-06-18 06:33:00,
2013-06-18 00:43:00,64.0,-99.9,-100.00,SW,225,12.0,15.0,-999,-99.99,,,-99.99,,2013-06-18 06:43:00,
2013-06-18 00:53:00,64.0,-99.9,-100.00,SW,225,12.0,15.0,-999,-99.99,,,-99.99,,2013-06-18 06:53:00,
2013-06-18 01:00:00,62.0,-99.9,-100.00,SW,228,12.0,16.0,-999,-99.99,,,-99.99,,2013-06-18 07:00:00,
2013-06-18 01:22:00,62.0,-99.9,-100.00,SW,228,12.0,16.0,-999,-99.99,,,-99.99,,2013-06-18 07:22:00,
2013-06-18 01:33:00,62.0,-99.9,-100.00,SW,228,12.0,16.0,-999,-99.99,,,-99.99,,2013-06-18 07:33:00,
2013-06-18 01:43:00,62.0,-99.9,-100.00,SW,228,12.0,16.0,-999,-99.99,,,-99.99,,2013-06-18 07:43:00,
2013-06-18 01:53:00,62.0,-99.9,-100.00,SW,228,12.0,16.0,-999,-99.99,,,-99.99,,2013-06-18 07:53:00,
2013-06-18 02:00:00,61.0,-99.9,-100.00,SW,226,11.0,14.0,-999,-99.99,,,-99.99,,2013-06-18 08:00:00,
2013-06-18 02:23:00,61.0,-99.9,-100.00,SW,226,11.0,14.0,-999,-99.99,,,-99.99,,2013-06-18 08:23:00,
2013-06-18 02:33:00,61.0,-99.9,-100.00,SW,226,11.0,14.0,-999,-99.99,,,-99.99,,2013-06-18 08:33:00,
2013-06-18 02:43:00,61.0,-99.9,-100.00,SW,226,11.0,14.0,-999,-99.99,,,-99.99,,2013-06-18 08:43:00,
2013-06-18 02:52:00,61.0,-99.9,-100.00,SW,226,11.0,14.0,-999,-99.99,,,-99.99,,2013-06-18 08:52:00,
2013-06-18 03:00:00,58.0,-99.9,-100.00,West,260,8.0,10.0,-999,-99.99,,,-99.99,,2013-06-18 09:00:00,
2013-06-18 03:22:00,58.0,-99.9,-100.00,West,260,8.0,10.0,-999,-99.99,,,-99.99,,2013-06-18 09:22:00,
2013-06-18 03:34:00,58.0,-99.9,-100.00,West,260,8.0,10.0,-999,-99.99,,,-99.99,,2013-06-18 09:34:00,
2013-06-18 03:43:00,58.0,-99.9,-100.00,West,260,8.0,10.0,-999,-99.99,,,-99.99,,2013-06-18 09:43:00,
2013-06-18 03:53:00,58.0,-99.9,-100.00,West,260,8.0,10.0,-999,-99.99,,,-99.99,,2013-06-18 09:53:00,
2013-06-18 04:00:00,57.0,-99.9,-100.00,SW,223,6.0,7.0,-999,-99.99,,,-99.99,,2013-06-18 10:00:00,
2013-06-18 04:33:00,57.0,-99.9,-100.00,SW,223,6.0,7.0,-999,-99.99,,,-99.99,,2013-06-18 10:33:00,
2013-06-18 04:43:00,57.0,-99.9,-100.00,SW,223,6.0,7.0,-999,-99.99,,,-99.99,,2013-06-18 10:43:00,
2013-06-18 04:53:00,57.0,-99.9,-100.00,SW,223,6.0,7.0,-999,-99.99,,,-99.99,,2013-06-18 10:53:00,
2013-06-18 05:00:00,55.0,-99.9,-100.00,SW,218,7.0,9.0,-999,-99.99,,,-99.99,,2013-06-18 11:00:00,
2013-06-18 05:22:00,55.0,-99.9,-100.00,SW,218,7.0,9.0,-999,-99.99,,,-99.99,,2013-06-18 11:22:00,
2013-06-18 05:32:00,55.0,-99.9,-100.00,SW,218,7.0,9.0,-999,-99.99,,,-99.99,,2013-06-18 11:32:00,
2013-06-18 05:43:00,55.0,-99.9,-100.00,SW,218,7.0,9.0,-999,-99.99,,,-99.99,,2013-06-18 11:43:00,
2013-06-18 05:52:00,55.0,-99.9,-100.00,SW,218,7.0,9.0,-999,-99.99,,,-99.99,,2013-06-18 11:52:00,
2013-06-18 06:00:00,56.0,-99.9,-100.00,SW,218,6.0,8.0,-999,-99.99,,,-99.99,,2013-06-18 12:00:00,
2013-06-18 06:22:00,56.0,-99.9,-100.00,SW,218,6.0,8.0,-999,-99.99,,,-99.99,,2013-06-18 12:22:00,
2013-06-18 06:33:00,56.0,-99.9,-100.00,SW,218,6.0,8.0,-999,-99.99,,,-99.99,,2013-06-18 12:33:00,
2013-06-18 06:43:00,56.0,-99.9,-100.00,SW,218,6.0,8.0,-999,-99.99,,,-99.99,,2013-06-18 12:43:00,
2013-06-18 06:52:00,56.0,-99.9,-100.00,SW,218,6.0,8.0,-999,-99.99,,,-99.99,,2013-06-18 12:52:00,
2013-06-18 07:00:00,61.0,-99.9,-100.00,WNW,284,5.0,6.0,-999,-99.99,,,-99.99,,2013-06-18 13:00:00,
2013-06-18 07:22:00,61.0,-99.9,-100.00,WNW,284,5.0,6.0,-999,-99.99,,,-99.99,,2013-06-18 13:22:00,
2013-06-18 07:34:00,61.0,-99.9,-100.00,WNW,284,5.0,6.0,-999,-99.99,,,-99.99,,2013-06-18 13:34:00,
2013-06-18 07:43:00,61.0,-99.9,-100.00,WNW,284,5.0,6.0,-999,-99.99,,,-99.99,,2013-06-18 13:43:00,
2013-06-18 07:53:00,61.0,-99.9,-100.00,WNW,284,5.0,6.0,-999,-99.99,,,-99.99,,2013-06-18 13:53:00,
2013-06-18 08:00:00,69.0,-99.9,-100.00,North,350,2.0,3.0,-999,-99.99,,,-99.99,,2013-06-18 14:00:00,
2013-06-18 08:43:00,69.0,-99.9,-100.00,North,350,2.0,3.0,-999,-99.99,,,-99.99,,2013-06-18 14:43:00,
2013-06-18 09:00:00,71.0,-99.9,-100.00,East,84,6.0,8.0,-999,-99.99,,,-99.99,,2013-06-18 15:00:00,
2013-06-18 09:33:00,71.0,-99.9,-100.00,East,84,6.0,8.0,-999,-99.99,,,-99.99,,2013-06-18 15:33:00,
2013-06-18 09:43:00,71.0,-99.9,-100.00,East,84,6.0,8.0,-999,-99.99,,,-99.99,,2013-06-18 15:43:00,
2013-06-18 09:53:00,71.0,-99.9,-100.00,East,84,6.0,8.0,-999,-99.99,,,-99.99,,2013-06-18 15:53:00,
2013-06-18 10:00:00,76.0,-99.9,-100.00,NNE,29,1.0,3.0,-999,-99.99,,,-99.99,,2013-06-18 16:00:00,
2013-06-18 10:33:00,76.0,-99.9,-100.00,NNE,29,1.0,3.0,-999,-99.99,,,-99.99,,2013-06-18 16:33:00,
2013-06-18 10:43:00,76.0,-99.9,-100.00,NNE,29,1.0,3.0,-999,-99.99,,,-99.99,,2013-06-18 16:43:00,
2013-06-18 10:53:00,76.0,-99.9,-100.00,NNE,29,1.0,3.0,-999,-99.99,,,-99.99,,2013-06-18 16:53:00,
2013-06-18 11:00:00,79.0,-99.9,-100.00,ENE,76,6.0,8.0,-999,-99.99,,,-99.99,,2013-06-18 17:00:00,
2013-06-18 11:23:00,79.0,-99.9,-100.00,ENE,76,6.0,8.0,-999,-99.99,,,-99.99,,2013-06-18 17:23:00,
2013-06-18 11:34:00,79.0,-99.9,-100.00,ENE,76,6.0,8.0,-999,-99.99,,,-99.99,,2013-06-18 17:34:00,
2013-06-18 11:43:00,79.0,-99.9,-100.00,ENE,76,6.0,8.0,-999,-99.99,,,-99.99,,2013-06-18 17:43:00,
2013-06-18 11:53:00,79.0,-99.9,-100.00,ENE,76,6.0,8.0,-999,-99.99,,,-99.99,,2013-06-18 17:53:00,
2013-06-18 12:00:00,83.0,-99.9,-100.00,WNW,297,6.0,9.0,-999,-99.99,,,-99.99,,2013-06-18 18:00:00,
2013-06-18 12:22:00,83.0,-99.9,-100.00,WNW,297,6.0,9.0,-999,-99.99,,,-99.99,,2013-06-18 18:22:00,
2013-06-18 12:33:00,83.0,-99.9,-100.00,WNW,297,6.0,9.0,-999,-99.99,,,-99.99,,2013-06-18 18:33:00,
2013-06-18 12:43:00,83.0,-99.9,-100.00,WNW,297,6.0,9.0,-999,-99.99,,,-99.99,,2013-06-18 18:43:00,
2013-06-18 12:53:00,83.0,-99.9,-100.00,WNW,297,6.0,9.0,-999,-99.99,,,-99.99,,2013-06-18 18:53:00,
2013-06-18 13:00:00,79.0,-99.9,-100.00,NW,318,13.0,18.0,-999,-99.99,,,-99.99,,2013-06-18 19:00:00,
2013-06-18 13:34:00,79.0,-99.9,-100.00,NW,318,13.0,18.0,-999,-99.99,,,-99.99,,2013-06-18 19:34:00,
2013-06-18 13:43:00,79.0,-99.9,-100.00,NW,318,13.0,18.0,-999,-99.99,,,-99.99,,2013-06-18 19:43:00,
2013-06-18 13:53:00,79.0,-99.9,-100.00,NW,318,13.0,18.0,-999,-99.99,,,-99.99,,2013-06-18 19:53:00,
2013-06-18 14:00:00,83.0,-99.9,-100.00,North,359,9.0,11.0,-999,-99.99,,,-99.99,,2013-06-18 20:00:00,
2013-06-18 14:23:00,83.0,-99.9,-100.00,North,359,9.0,11.0,-999,-99.99,,,-99.99,,2013-06-18 20:23:00,
2013-06-18 14:33:00,83.0,-99.9,-100.00,North,359,9.0,11.0,-999,-99.99,,,-99.99,,2013-06-18 20:33:00,
2013-06-18 14:43:00,83.0,-99.9,-100.00,North,359,9.0,11.0,-999,-99.99,,,-99.99,,2013-06-18 20:43:00,
2013-06-18 14:53:00,83.0,-99.9,-100.00,North,359,9.0,11.0,-999,-99.99,,,-99.99,,2013-06-18 20:53:00,
2013-06-18 15:00:00,81.0,-99.9,-100.00,West,281,12.0,15.0,-999,-99.99,,,-99.99,,2013-06-18 21:00:00,
2013-06-18 15:23:00,81.0,-99.9,-100.00,West,281,12.0,15.0,-999,-99.99,,,-99.99,,2013-06-18 21:23:00,
2013-06-18 15:33:00,81.0,-99.9,-100.00,West,281,12.0,15.0,-999,-99.99,,,-99.99,,2013-06-18 21:33:00,
2013-06-18 15:43:00,81.0,-99.9,-100.00,West,281,12.0,15.0,-999,-99.99,,,-99.99,,2013-06-18 21:43:00,
2013-06-18 15:53:00,81.0,-99.9,-100.00,West,281,12.0,15.0,-999,-99.99,,,-99.99,,2013-06-18 21:53:00,
2013-06-18 16:00:00,79.0,-99.9,-100.00,North,352,16.0,23.0,-999,-99.99,,,-99.99,,2013-06-18 22:00:00,
2013-06-18 16:34:00,79.0,-99.9,-100.00,North,352,16.0,23.0,-999,-99.99,,,-99.99,,2013-06-18 22:34:00,
2013-06-18 16:43:00,79.0,-99.9,-100.00,North,352,16.0,23.0,-999,-99.99,,,-99.99,,2013-06-18 22:43:00,
2013-06-18 16:53:00,79.0,-99.9,-100.00,North,352,16.0,23.0,-999,-99.99,,,-99.99,,2013-06-18 22:53:00,
2013-06-18 17:00:00,82.0,-99.9,-100.00,WSW,239,7.0,9.0,-999,-99.99,,,-99.99,,2013-06-18 23:00:00,
2013-06-18 17:23:00,82.0,-99.9,-100.00,WSW,239,7.0,9.0,-999,-99.99,,,-99.99,,2013-06-18 23:23:00,
2013-06-18 17:40:00,82.0,-99.9,-100.00,WSW,239,7.0,9.0,-999,-99.99,,,-99.99,,2013-06-18 23:40:00,
2013-06-18 17:49:00,82.0,-99.9,-100.00,WSW,239,7.0,9.0,-999,-99.99,,,-99.99,,2013-06-18 23:49:00,
2013-06-18 18:00:00,82.0,-99.9,-100.00,East,100,6.0,6.0,-999,-99.99,,,-99.99,,2013-06-19 00:00:00,
2013-06-18 18:22:00,82.0,-99.9,-100.00,East,100,6.0,6.0,-999,-99.99,,,-99.99,,2013-06-19 00:22:00,
2013-06-18 18:33:00,82.0,-99.9,-100.00,East,100,6.0,6.0,-999,-99.99,,,-99.99,,2013-06-19 00:33:00,
2013-06-18 18:43:00,82.0,-99.9,-100.00,East,100,6.0,6.0,-999,-99.99,,,-99.99,,2013-06-19 00:43:00,
2013-06-18 18:53:00,82.0,-99.9,-100.00,East,100,6.0,6.0,-999,-99.99,,,-99.99,,2013-06-19 00:53:00,
2013-06-18 19:00:00,80.0,-99.9,-100.00,East,98,13.0,15.0,-999,-99.99,,,-99.99,,2013-06-19 01:00:00,
2013-06-18 19:22:00,80.0,-99.9,-100.00,East,98,13.0,15.0,-999,-99.99,,,-99.99,,2013-06-19 01:22:00,
2013-06-18 19:32:00,80.0,-99.9,-100.00,East,98,13.0,15.0,-999,-99.99,,,-99.99,,2013-06-19 01:32:00,
2013-06-18 19:43:00,80.0,-99.9,-100.00,East,98,13.0,15.0,-999,-99.99,,,-99.99,,2013-06-19 01:43:00,
2013-06-18 19:53:00,80.0,-99.9,-100.00,East,98,13.0,15.0,-999,-99.99,,,-99.99,,2013-06-19 01:53:00,
2013-06-18 20:00:00,76.0,-99.9,-100.00,SSE,150,6.0,6.0,-999,-99.99,,,-99.99,,2013-06-19 02:00:00,
2013-06-18 20:21:00,76.0,-99.9,-100.00,SSE,150,6.0,6.0,-999,-99.99,,,-99.99,,2013-06-19 02:21:00,
2013-06-18 20:33:00,76.0,-99.9,-100.00,SSE,150,6.0,6.0,-999,-99.99,,,-99.99,,2013-06-19 02:33:00,
2013-06-18 20:43:00,76.0,-99.9,-100.00,SSE,150,6.0,6.0,-999,-99.99,,,-99.99,,2013-06-19 02:43:00,
2013-06-18 20:52:00,76.0,-99.9,-100.00,SSE,150,6.0,6.0,-999,-99.99,,,-99.99,,2013-06-19 02:52:00,
2013-06-18 21:00:00,70.0,-99.9,-100.00,SW,227,5.0,5.0,-999,-99.99,,,-99.99,,2013-06-19 03:00:00,
2013-06-18 21:22:00,70.0,-99.9,-100.00,SW,227,5.0,5.0,-999,-99.99,,,-99.99,,2013-06-19 03:22:00,
2013-06-18 21:33:00,70.0,-99.9,-100.00,SW,227,5.0,5.0,-999,-99.99,,,-99.99,,2013-06-19 03:33:00,
2013-06-18 21:43:00,70.0,-99.9,-100.00,SW,227,5.0,5.0,-999,-99.99,,,-99.99,,2013-06-19 03:43:00,
2013-06-18 21:53:00,70.0,-99.9,-100.00,SW,227,5.0,5.0,-999,-99.99,,,-99.99,,2013-06-19 03:53:00,
2013-06-18 22:00:00,72.0,-99.9,-100.00,SSE,163,12.0,17.0,-999,-99.99,,,-99.99,,2013-06-19 04:00:00,
2013-06-18 22:23:00,72.0,-99.9,-100.00,SSE,163,12.0,17.0,-999,-99.99,,,-99.99,,2013-06-19 04:23:00,
2013-06-18 22:33:00,72.0,-99.9,-100.00,SSE,163,12.0,17.0,-999,-99.99,,,-99.99,,2013-06-19 04:33:00,
2013-06-18 22:43:00,72.0,-99.9,-100.00,SSE,163,12.0,17.0,-999,-99.99,,,-99.99,,2013-06-19 04:43:00,
2013-06-18 22:53:00,72.0,-99.9,-100.00,SSE,163,12.0,17.0,-999,-99.99,,,-99.99,,2013-06-19 04:53:00,
2013-06-18 23:00:00,65.0,-99.9,-100.00,SW,230,9.0,10.0,-999,-99.99,,,-99.99,,2013-06-19 05:00:00,
2013-06-18 23:23:00,65.0,-99.9,-100.00,SW,230,9.0,10.0,-999,-99.99,,,-99.99,,2013-06-19 05:23:00,
2013-06-18 23:33:00,65.0,-99.9,-100.00,SW,230,9.0,10.0,-999,-99.99,,,-99.99,,2013-06-19 05:33:00,
2013-06-18 23:43:00,65.0,-99.9,-100.00,SW,230,9.0,10.0,-999,-99.99,,,-99.99,,2013-06-19 05:43:00,
2013-06-18 23:52:00,65.0,-99.9,-100.00,SW,230,9.0,10.0,-999,-99.99,,,-99.99,,2013-06-19 05:52:00,